Вернуться в каталог

COSMOS 886 DEB

АктивенLEO
NORAD 9723·DEBRIS·🇷🇺 Russia

Запущен Dec 27, 1976 с Baikonur Cosmodrome

Loading…

Ближайшие Пролёты (ближайшие 24 часа)

TLE

СвежийSource: Space-Track

Эпоха: Sep 14, 2026, 09:48 UTC

1 09723U 76126U   26257.40859884  .00002328  00000-0  21823-2 0  9994
2 09723  65.7549  36.0651 0693829 245.9276 106.7689 13.07349218310539

Отслеживайте COSMOS 886 DEB в реальном времени с AllMySat

Download on the App Store